Time,TemperatureF,DewpointF,PressureIn,WindDirection,WindDirectionDegrees,WindSpeedMPH,WindSpeedGustMPH,Humidity,HourlyPrecipIn,Conditions,Clouds,dailyrainin,SolarRadiationWatts/m^2,SoftwareType,DateUTC
2013-12-06 00:02:00,8.5,-3.3,30.52,NNW,333,2.0,13.0,57,0.00,,,0.00,0,HR-IXPWINDi_r2_v1.2.,2013-12-06 06:02:00,
2013-12-06 00:08:00,8.4,-3.4,30.52,NW,323,3.0,17.0,57,0.00,,,0.00,0,HR-IXPWINDi_r2_v1.2.,2013-12-06 06:08:00,
2013-12-06 00:13:00,8.4,-3.4,30.52,ENE,71,5.0,17.0,57,0.00,,,0.00,0,HR-IXPWINDi_r2_v1.2.,2013-12-06 06:13:00,
2013-12-06 00:18:00,8.2,-3.9,30.52,ENE,57,4.0,10.0,56,0.00,,,0.00,0,HR-IXPWINDi_r2_v1.2.,2013-12-06 06:18:00,
2013-12-06 00:23:00,8.1,-4.0,30.52,East,98,6.0,10.0,56,0.00,,,0.00,0,HR-IXPWINDi_r2_v1.2.,2013-12-06 06:23:00,
2013-12-06 00:29:00,7.9,-4.6,30.53,NE,36,7.0,13.0,55,0.00,,,0.00,0,HR-IXPWINDi_r2_v1.2.,2013-12-06 06:29:00,
2013-12-06 00:34:00,7.8,-4.3,30.53,NNE,24,7.0,13.0,56,0.00,,,0.00,0,HR-IXPWINDi_r2_v1.2.,2013-12-06 06:34:00,
2013-12-06 00:39:00,7.8,-4.3,30.52,NW,307,10.0,16.0,56,0.00,,,0.00,0,HR-IXPWINDi_r2_v1.2.,2013-12-06 06:39:00,
2013-12-06 00:44:00,7.6,-4.5,30.52,ESE,121,3.0,16.0,56,0.00,,,0.00,0,HR-IXPWINDi_r2_v1.2.,2013-12-06 06:44:00,
2013-12-06 00:49:00,7.6,-4.5,30.52,NW,305,3.0,11.0,56,0.00,,,0.00,0,HR-IXPWINDi_r2_v1.2.,2013-12-06 06:49:00,
2013-12-06 00:54:00,7.5,-4.6,30.52,WNW,285,4.0,13.0,56,0.00,,,0.00,0,HR-IXPWINDi_r2_v1.2.,2013-12-06 06:54:00,
2013-12-06 01:00:00,7.3,-4.4,30.53,North,360,2.0,13.0,57,0.00,,,0.00,0,HR-IXPWINDi_r2_v1.2.,2013-12-06 07:00:00,
2013-12-06 01:05:00,7.2,-4.5,30.53,NNE,23,7.0,13.0,57,0.00,,,0.00,0,HR-IXPWINDi_r2_v1.2.,2013-12-06 07:05:00,
2013-12-06 01:10:00,7.1,-4.6,30.53,NE,39,3.0,10.0,57,0.00,,,0.00,0,HR-IXPWINDi_r2_v1.2.,2013-12-06 07:10:00,
2013-12-06 01:15:00,7.1,-4.2,30.53,NNW,346,2.0,9.0,58,0.00,,,0.00,0,HR-IXPWINDi_r2_v1.2.,2013-12-06 07:15:00,
2013-12-06 01:20:00,6.9,-4.4,30.53,NNW,340,0.0,8.0,58,0.00,,,0.00,0,HR-IXPWINDi_r2_v1.2.,2013-12-06 07:20:00,
2013-12-06 01:25:00,6.7,-4.3,30.53,NW,319,2.0,8.0,59,0.00,,,0.00,0,HR-IXPWINDi_r2_v1.2.,2013-12-06 07:25:00,
2013-12-06 01:31:00,6.5,-4.4,30.53,ENE,58,3.0,8.0,59,0.00,,,0.00,0,HR-IXPWINDi_r2_v1.2.,2013-12-06 07:31:00,
2013-12-06 01:36:00,6.4,-4.5,30.53,NNW,348,4.0,11.0,59,0.00,,,0.00,0,HR-IXPWINDi_r2_v1.2.,2013-12-06 07:36:00,
2013-12-06 01:41:00,6.3,-4.3,30.53,NE,52,3.0,11.0,60,0.00,,,0.00,0,HR-IXPWINDi_r2_v1.2.,2013-12-06 07:41:00,
2013-12-06 01:46:00,6.3,-4.3,30.54,WNW,303,3.0,10.0,60,0.00,,,0.00,0,HR-IXPWINDi_r2_v1.2.,2013-12-06 07:46:00,
2013-12-06 01:51:00,6.1,-4.5,30.55,NW,320,2.0,10.0,60,0.00,,,0.00,0,HR-IXPWINDi_r2_v1.2.,2013-12-06 07:51:00,
2013-12-06 01:57:00,6.0,-4.2,30.55,NW,313,4.0,9.0,61,0.00,,,0.00,0,HR-IXPWINDi_r2_v1.2.,2013-12-06 07:57:00,
2013-12-06 02:02:00,5.8,-4.4,30.56,ENE,61,1.0,9.0,61,0.00,,,0.00,0,HR-IXPWINDi_r2_v1.2.,2013-12-06 08:02:00,
2013-12-06 02:07:00,5.6,-4.3,30.55,NE,35,3.0,8.0,62,0.00,,,0.00,0,HR-IXPWINDi_r2_v1.2.,2013-12-06 08:07:00,
2013-12-06 02:12:00,5.4,-4.5,30.55,NE,49,4.0,9.0,62,0.00,,,0.00,0,HR-IXPWINDi_r2_v1.2.,2013-12-06 08:12:00,
2013-12-06 02:17:00,5.3,-4.2,30.55,North,5,3.0,9.0,63,0.00,,,0.00,0,HR-IXPWINDi_r2_v1.2.,2013-12-06 08:17:00,
2013-12-06 02:23:00,5.1,-4.4,30.55,WNW,290,2.0,9.0,63,0.00,,,0.00,0,HR-IXPWINDi_r2_v1.2.,2013-12-06 08:23:00,
2013-12-06 02:28:00,4.8,-4.4,30.55,NE,35,6.0,11.0,64,0.00,,,0.00,0,HR-IXPWINDi_r2_v1.2.,2013-12-06 08:28:00,
2013-12-06 02:33:00,4.7,-4.5,30.55,WNW,300,6.0,11.0,64,0.00,,,0.00,0,HR-IXPWINDi_r2_v1.2.,2013-12-06 08:33:00,
2013-12-06 02:38:00,4.5,-4.7,30.56,NW,321,6.0,10.0,64,0.00,,,0.00,0,HR-IXPWINDi_r2_v1.2.,2013-12-06 08:38:00,
2013-12-06 02:43:00,4.3,-4.5,30.56,NNW,342,2.0,8.0,65,0.00,,,0.00,0,HR-IXPWINDi_r2_v1.2.,2013-12-06 08:43:00,
2013-12-06 02:48:00,4.2,-4.6,30.56,NNE,20,3.0,9.0,65,0.00,,,0.00,0,HR-IXPWINDi_r2_v1.2.,2013-12-06 08:48:00,
2013-12-06 02:54:00,4.3,-4.5,30.56,NE,37,3.0,13.0,65,0.00,,,0.00,0,HR-IXPWINDi_r2_v1.2.,2013-12-06 08:54:00,
2013-12-06 02:59:00,4.1,-4.7,30.56,NW,310,1.0,13.0,65,0.00,,,0.00,0,HR-IXPWINDi_r2_v1.2.,2013-12-06 08:59:00,
2013-12-06 03:04:00,4.0,-4.8,30.57,NNW,346,3.0,12.0,65,0.00,,,0.00,0,HR-IXPWINDi_r2_v1.2.,2013-12-06 09:04:00,
2013-12-06 03:09:00,3.9,-4.9,30.57,ENE,59,2.0,12.0,65,0.00,,,0.00,0,HR-IXPWINDi_r2_v1.2.,2013-12-06 09:09:00,
2013-12-06 03:14:00,3.8,-4.7,30.57,NW,319,4.0,10.0,66,0.00,,,0.00,0,HR-IXPWINDi_r2_v1.2.,2013-12-06 09:14:00,
2013-12-06 03:19:00,3.8,-4.7,30.57,NNW,333,4.0,10.0,66,0.00,,,0.00,0,HR-IXPWINDi_r2_v1.2.,2013-12-06 09:19:00,
2013-12-06 03:24:00,3.9,-4.9,30.57,NW,324,5.0,11.0,65,0.00,,,0.00,0,HR-IXPWINDi_r2_v1.2.,2013-12-06 09:24:00,
2013-12-06 03:29:00,4.0,-4.8,30.57,ENE,77,3.0,11.0,65,0.00,,,0.00,0,HR-IXPWINDi_r2_v1.2.,2013-12-06 09:29:00,
2013-12-06 03:35:00,4.0,-5.1,30.57,NE,53,5.0,12.0,64,0.00,,,0.00,0,HR-IXPWINDi_r2_v1.2.,2013-12-06 09:35:00,
2013-12-06 03:40:00,4.0,-5.1,30.57,NE,52,1.0,12.0,64,0.00,,,0.00,0,HR-IXPWINDi_r2_v1.2.,2013-12-06 09:40:00,
2013-12-06 03:45:00,4.1,-4.7,30.57,NE,41,0.0,10.0,65,0.00,,,0.00,0,HR-IXPWINDi_r2_v1.2.,2013-12-06 09:45:00,
2013-12-06 03:50:00,4.1,-4.7,30.57,WNW,300,8.0,12.0,65,0.00,,,0.00,0,HR-IXPWINDi_r2_v1.2.,2013-12-06 09:50:00,
2013-12-06 03:55:00,4.0,-5.5,30.58,NW,322,3.0,12.0,63,0.00,,,0.00,0,HR-IXPWINDi_r2_v1.2.,2013-12-06 09:55:00,
2013-12-06 04:01:00,3.8,-5.6,30.58,NNW,346,2.0,14.0,63,0.00,,,0.00,0,HR-IXPWINDi_r2_v1.2.,2013-12-06 10:01:00,
2013-12-06 04:06:00,3.7,-5.7,30.58,WNW,296,14.0,14.0,63,0.00,,,0.00,0,HR-IXPWINDi_r2_v1.2.,2013-12-06 10:06:00,
2013-12-06 04:11:00,3.6,-6.2,30.58,WNW,302,2.0,14.0,62,0.00,,,0.00,0,HR-IXPWINDi_r2_v1.2.,2013-12-06 10:11:00,
2013-12-06 04:16:00,3.6,-5.8,30.58,WNW,300,3.0,14.0,63,0.00,,,0.00,0,HR-IXPWINDi_r2_v1.2.,2013-12-06 10:16:00,
2013-12-06 04:21:00,3.4,-6.4,30.58,NNE,26,1.0,12.0,62,0.00,,,0.00,0,HR-IXPWINDi_r2_v1.2.,2013-12-06 10:21:00,
2013-12-06 04:27:00,3.2,-6.5,30.58,WNW,303,3.0,12.0,62,0.00,,,0.00,0,HR-IXPWINDi_r2_v1.2.,2013-12-06 10:27:00,
2013-12-06 04:32:00,2.9,-6.8,30.58,NW,325,4.0,13.0,62,0.00,,,0.00,0,HR-IXPWINDi_r2_v1.2.,2013-12-06 10:32:00,
2013-12-06 04:37:00,2.8,-6.6,30.59,WSW,248,3.0,13.0,63,0.00,,,0.00,0,HR-IXPWINDi_r2_v1.2.,2013-12-06 10:37:00,
2013-12-06 04:42:00,2.7,-6.4,30.59,North,360,4.0,11.0,64,0.00,,,0.00,0,HR-IXPWINDi_r2_v1.2.,2013-12-06 10:42:00,
2013-12-06 04:47:00,2.4,-6.6,30.59,NNW,327,3.0,10.0,64,0.00,,,0.00,0,HR-IXPWINDi_r2_v1.2.,2013-12-06 10:47:00,
2013-12-06 04:52:00,2.3,-6.7,30.59,NNW,329,6.0,10.0,64,0.00,,,0.00,0,HR-IXPWINDi_r2_v1.2.,2013-12-06 10:52:00,
2013-12-06 04:57:00,2.2,-6.8,30.59,NW,306,2.0,15.0,64,0.00,,,0.00,0,HR-IXPWINDi_r2_v1.2.,2013-12-06 10:57:00,
2013-12-06 05:03:00,2.0,-6.7,30.59,NNE,20,3.0,15.0,65,0.00,,,0.00,0,HR-IXPWINDi_r2_v1.2.,2013-12-06 11:03:00,
2013-12-06 05:08:00,1.9,-6.8,30.59,WNW,302,9.0,12.0,65,0.00,,,0.00,0,HR-IXPWINDi_r2_v1.2.,2013-12-06 11:08:00,
2013-12-06 05:13:00,1.7,-7.0,30.59,NNW,328,4.0,12.0,65,0.00,,,0.00,0,HR-IXPWINDi_r2_v1.2.,2013-12-06 11:13:00,
2013-12-06 05:18:00,1.7,-7.0,30.59,ENE,71,3.0,12.0,65,0.00,,,0.00,0,HR-IXPWINDi_r2_v1.2.,2013-12-06 11:18:00,
2013-12-06 05:24:00,1.6,-7.1,30.59,North,350,2.0,12.0,65,0.00,,,0.00,0,HR-IXPWINDi_r2_v1.2.,2013-12-06 11:24:00,
2013-12-06 05:29:00,1.5,-6.9,30.60,North,351,1.0,8.0,66,0.00,,,0.00,0,HR-IXPWINDi_r2_v1.2.,2013-12-06 11:29:00,
2013-12-06 05:34:00,1.5,-6.9,30.60,NNE,27,1.0,8.0,66,0.00,,,0.00,0,HR-IXPWINDi_r2_v1.2.,2013-12-06 11:34:00,
2013-12-06 05:40:00,1.4,-7.0,30.60,NW,321,1.0,8.0,66,0.00,,,0.00,0,HR-IXPWINDi_r2_v1.2.,2013-12-06 11:40:00,
2013-12-06 05:45:00,1.3,-7.1,30.60,NW,315,2.0,10.0,66,0.00,,,0.00,0,HR-IXPWINDi_r2_v1.2.,2013-12-06 11:45:00,
2013-12-06 05:50:00,1.2,-7.2,30.60,NNW,331,10.0,11.0,66,0.00,,,0.00,0,HR-IXPWINDi_r2_v1.2.,2013-12-06 11:50:00,
2013-12-06 05:55:00,1.1,-7.3,30.60,NW,309,6.0,11.0,66,0.00,,,0.00,0,HR-IXPWINDi_r2_v1.2.,2013-12-06 11:55:00,
2013-12-06 06:00:00,1.0,-7.3,30.60,NNW,339,3.0,8.0,66,0.00,,,0.00,0,HR-IXPWINDi_r2_v1.2.,2013-12-06 12:00:00,
2013-12-06 06:06:00,1.0,-7.0,30.60,NW,324,2.0,14.0,67,0.00,,,0.00,0,HR-IXPWINDi_r2_v1.2.,2013-12-06 12:06:00,
2013-12-06 06:11:00,0.9,-7.1,30.60,NNW,331,0.0,14.0,67,0.00,,,0.00,0,HR-IXPWINDi_r2_v1.2.,2013-12-06 12:11:00,
2013-12-06 06:16:00,0.8,-7.2,30.61,NNW,331,1.0,7.0,67,0.00,,,0.00,0,HR-IXPWINDi_r2_v1.2.,2013-12-06 12:16:00,
2013-12-06 06:21:00,0.7,-7.3,30.61,NW,313,3.0,10.0,67,0.00,,,0.00,0,HR-IXPWINDi_r2_v1.2.,2013-12-06 12:21:00,
2013-12-06 06:26:00,0.6,-7.4,30.61,NW,311,3.0,10.0,67,0.00,,,0.00,0,HR-IXPWINDi_r2_v1.2.,2013-12-06 12:26:00,
2013-12-06 06:31:00,0.6,-7.4,30.61,NW,305,6.0,10.0,67,0.00,,,0.00,0,HR-IXPWINDi_r2_v1.2.,2013-12-06 12:31:00,
2013-12-06 06:37:00,0.5,-7.5,30.62,WNW,300,6.0,10.0,67,0.00,,,0.00,0,HR-IXPWINDi_r2_v1.2.,2013-12-06 12:37:00,
2013-12-06 06:42:00,0.4,-7.6,30.62,NW,321,6.0,10.0,67,0.00,,,0.00,0,HR-IXPWINDi_r2_v1.2.,2013-12-06 12:42:00,
2013-12-06 06:47:00,0.4,-7.6,30.62,NNW,336,3.0,10.0,67,0.00,,,0.00,0,HR-IXPWINDi_r2_v1.2.,2013-12-06 12:47:00,
2013-12-06 06:52:00,0.3,-7.7,30.62,NW,308,0.0,8.0,67,0.00,,,0.00,0,HR-IXPWINDi_r2_v1.2.,2013-12-06 12:52:00,
2013-12-06 06:57:00,0.3,-7.4,30.62,WNW,300,1.0,7.0,68,0.00,,,0.00,0,HR-IXPWINDi_r2_v1.2.,2013-12-06 12:57:00,
2013-12-06 07:02:00,0.3,-7.4,30.62,ENE,63,1.0,9.0,68,0.00,,,0.00,0,HR-IXPWINDi_r2_v1.2.,2013-12-06 13:02:00,
2013-12-06 07:07:00,0.3,-7.4,30.62,NNW,346,1.0,10.0,68,0.00,,,0.00,0,HR-IXPWINDi_r2_v1.2.,2013-12-06 13:07:00,
2013-12-06 07:12:00,0.4,-7.3,30.62,NNW,333,4.0,11.0,68,0.00,,,0.00,0,HR-IXPWINDi_r2_v1.2.,2013-12-06 13:12:00,
2013-12-06 07:18:00,0.4,-7.3,30.61,East,81,7.0,11.0,68,0.00,,,0.00,0,HR-IXPWINDi_r2_v1.2.,2013-12-06 13:18:00,
2013-12-06 07:23:00,0.4,-7.6,30.61,NNW,347,5.0,11.0,67,0.00,,,0.00,0,HR-IXPWINDi_r2_v1.2.,2013-12-06 13:23:00,
2013-12-06 07:28:00,0.3,-7.7,30.61,NNE,14,1.0,11.0,67,0.00,,,0.00,0,HR-IXPWINDi_r2_v1.2.,2013-12-06 13:28:00,
2013-12-06 07:33:00,0.2,-7.8,30.60,North,360,3.0,11.0,67,0.00,,,0.00,0,HR-IXPWINDi_r2_v1.2.,2013-12-06 13:33:00,
2013-12-06 07:38:00,0.1,-7.9,30.60,ENE,59,5.0,8.0,67,0.00,,,0.00,5,HR-IXPWINDi_r2_v1.2.,2013-12-06 13:38:00,
2013-12-06 07:43:00,0.1,-7.6,30.61,North,360,3.0,10.0,68,0.00,,,0.00,7,HR-IXPWINDi_r2_v1.2.,2013-12-06 13:43:00,
2013-12-06 07:48:00,0.1,-7.6,30.61,NNE,26,3.0,10.0,68,0.00,,,0.00,11,HR-IXPWINDi_r2_v1.2.,2013-12-06 13:48:00,
2013-12-06 07:54:00,0.0,-7.7,30.61,NNW,333,0.0,10.0,68,0.00,,,0.00,16,HR-IXPWINDi_r2_v1.2.,2013-12-06 13:54:00,
2013-12-06 07:59:00,0.0,-7.4,30.61,NW,321,3.0,9.0,69,0.00,,,0.00,33,HR-IXPWINDi_r2_v1.2.,2013-12-06 13:59:00,
2013-12-06 08:04:00,0.1,-7.3,30.62,NNE,15,6.0,10.0,69,0.00,,,0.00,46,HR-IXPWINDi_r2_v1.2.,2013-12-06 14:04:00,
2013-12-06 08:09:00,0.2,-7.2,30.62,ENE,70,2.0,11.0,69,0.00,,,0.00,60,HR-IXPWINDi_r2_v1.2.,2013-12-06 14:09:00,
2013-12-06 08:14:00,0.3,-7.1,30.63,NW,323,0.0,11.0,69,0.00,,,0.00,74,HR-IXPWINDi_r2_v1.2.,2013-12-06 14:14:00,
2013-12-06 08:19:00,0.5,-6.9,30.63,NNE,16,0.0,9.0,69,0.00,,,0.00,84,HR-IXPWINDi_r2_v1.2.,2013-12-06 14:19:00,
2013-12-06 08:25:00,0.6,-6.8,30.63,NE,47,5.0,9.0,69,0.00,,,0.00,104,HR-IXPWINDi_r2_v1.2.,2013-12-06 14:25:00,
2013-12-06 08:30:00,0.4,-7.3,30.63,NNE,30,3.0,10.0,68,0.00,,,0.00,121,HR-IXPWINDi_r2_v1.2.,2013-12-06 14:30:00,
2013-12-06 08:35:00,0.5,-6.9,30.64,WNW,292,12.0,12.0,69,0.00,,,0.00,139,HR-IXPWINDi_r2_v1.2.,2013-12-06 14:35:00,
2013-12-06 08:41:00,0.4,-7.3,30.64,WNW,292,5.0,16.0,68,0.00,,,0.00,155,HR-IXPWINDi_r2_v1.2.,2013-12-06 14:41:00,
2013-12-06 08:46:00,0.5,-7.5,30.64,NE,55,2.0,16.0,67,0.00,,,0.00,167,HR-IXPWINDi_r2_v1.2.,2013-12-06 14:46:00,
2013-12-06 08:51:00,0.6,-7.4,30.63,NW,315,3.0,13.0,67,0.00,,,0.00,183,HR-IXPWINDi_r2_v1.2.,2013-12-06 14:51:00,
2013-12-06 08:56:00,0.7,-7.6,30.64,NNW,331,8.0,12.0,66,0.00,,,0.00,197,HR-IXPWINDi_r2_v1.2.,2013-12-06 14:56:00,
2013-12-06 09:01:00,0.9,-7.4,30.64,North,355,3.0,15.0,66,0.00,,,0.00,209,HR-IXPWINDi_r2_v1.2.,2013-12-06 15:01:00,
2013-12-06 09:07:00,1.2,-7.2,30.64,NNE,24,3.0,15.0,66,0.00,,,0.00,223,HR-IXPWINDi_r2_v1.2.,2013-12-06 15:07:00,
2013-12-06 09:12:00,1.3,-7.4,30.64,WNW,284,6.0,12.0,65,0.00,,,0.00,237,HR-IXPWINDi_r2_v1.2.,2013-12-06 15:12:00,
2013-12-06 09:17:00,1.8,-6.9,30.64,WSW,254,1.0,13.0,65,0.00,,,0.00,250,HR-IXPWINDi_r2_v1.2.,2013-12-06 15:17:00,
2013-12-06 09:22:00,2.0,-6.7,30.64,NE,49,3.0,15.0,65,0.00,,,0.00,262,HR-IXPWINDi_r2_v1.2.,2013-12-06 15:22:00,
2013-12-06 09:27:00,2.3,-6.7,30.64,WNW,294,4.0,15.0,64,0.00,,,0.00,274,HR-IXPWINDi_r2_v1.2.,2013-12-06 15:27:00,
2013-12-06 09:32:00,2.3,-7.1,30.64,NNE,22,3.0,11.0,63,0.00,,,0.00,285,HR-IXPWINDi_r2_v1.2.,2013-12-06 15:32:00,
2013-12-06 09:37:00,2.3,-7.1,30.64,WNW,299,6.0,16.0,63,0.00,,,0.00,297,HR-IXPWINDi_r2_v1.2.,2013-12-06 15:37:00,
2013-12-06 09:43:00,2.6,-6.8,30.64,WNW,286,6.0,16.0,63,0.00,,,0.00,308,HR-IXPWINDi_r2_v1.2.,2013-12-06 15:43:00,
2013-12-06 09:48:00,2.9,-6.5,30.65,NE,36,2.0,12.0,63,0.00,,,0.00,320,HR-IXPWINDi_r2_v1.2.,2013-12-06 15:48:00,
2013-12-06 09:53:00,3.2,-6.5,30.65,NE,38,4.0,11.0,62,0.00,,,0.00,330,HR-IXPWINDi_r2_v1.2.,2013-12-06 15:53:00,
2013-12-06 09:58:00,3.4,-6.4,30.66,NNE,31,4.0,10.0,62,0.00,,,0.00,341,HR-IXPWINDi_r2_v1.2.,2013-12-06 15:58:00,
2013-12-06 10:03:00,3.7,-5.7,30.66,NE,48,3.0,8.0,63,0.00,,,0.00,352,HR-IXPWINDi_r2_v1.2.,2013-12-06 16:03:00,
2013-12-06 10:08:00,4.1,-5.7,30.66,NNW,339,9.0,13.0,62,0.00,,,0.00,360,HR-IXPWINDi_r2_v1.2.,2013-12-06 16:08:00,
2013-12-06 10:13:00,3.9,-6.2,30.66,NNE,20,2.0,13.0,61,0.00,,,0.00,373,HR-IXPWINDi_r2_v1.2.,2013-12-06 16:13:00,
2013-12-06 10:18:00,4.6,-5.6,30.66,NNE,15,8.0,13.0,61,0.00,,,0.00,383,HR-IXPWINDi_r2_v1.2.,2013-12-06 16:18:00,
2013-12-06 10:24:00,4.2,-6.3,30.65,NNE,30,7.0,12.0,60,0.00,,,0.00,390,HR-IXPWINDi_r2_v1.2.,2013-12-06 16:24:00,
2013-12-06 10:29:00,4.6,-5.9,30.66,ENE,61,3.0,12.0,60,0.00,,,0.00,403,HR-IXPWINDi_r2_v1.2.,2013-12-06 16:29:00,
2013-12-06 10:34:00,4.6,-5.9,30.66,North,11,7.0,15.0,60,0.00,,,0.00,408,HR-IXPWINDi_r2_v1.2.,2013-12-06 16:34:00,
2013-12-06 10:39:00,4.8,-5.7,30.66,WNW,300,3.0,15.0,60,0.00,,,0.00,417,HR-IXPWINDi_r2_v1.2.,2013-12-06 16:39:00,
2013-12-06 10:44:00,5.4,-5.1,30.66,WNW,303,5.0,14.0,60,0.00,,,0.00,422,HR-IXPWINDi_r2_v1.2.,2013-12-06 16:44:00,
2013-12-06 10:49:00,5.3,-5.6,30.66,West,269,1.0,14.0,59,0.00,,,0.00,427,HR-IXPWINDi_r2_v1.2.,2013-12-06 16:49:00,
2013-12-06 10:55:00,5.7,-5.2,30.66,NNE,15,7.0,14.0,59,0.00,,,0.00,439,HR-IXPWINDi_r2_v1.2.,2013-12-06 16:55:00,
2013-12-06 11:00:00,6.3,-4.6,30.66,NNE,13,3.0,12.0,59,0.00,,,0.00,464,HR-IXPWINDi_r2_v1.2.,2013-12-06 17:00:00,
2013-12-06 11:05:00,6.3,-5.0,30.66,NW,320,6.0,12.0,58,0.00,,,0.00,294,HR-IXPWINDi_r2_v1.2.,2013-12-06 17:05:00,
2013-12-06 11:10:00,6.4,-4.9,30.66,North,355,11.0,11.0,58,0.00,,,0.00,448,HR-IXPWINDi_r2_v1.2.,2013-12-06 17:10:00,
2013-12-06 11:15:00,6.7,-4.6,30.67,NW,315,6.0,14.0,58,0.00,,,0.00,399,HR-IXPWINDi_r2_v1.2.,2013-12-06 17:15:00,
2013-12-06 11:21:00,7.4,-4.0,30.65,NW,318,7.0,14.0,58,0.00,,,0.00,468,HR-IXPWINDi_r2_v1.2.,2013-12-06 17:21:00,
2013-12-06 11:26:00,7.7,-4.0,30.66,NNW,328,10.0,13.0,57,0.00,,,0.00,515,HR-IXPWINDi_r2_v1.2.,2013-12-06 17:26:00,
2013-12-06 11:31:00,8.2,-3.9,30.66,NE,53,5.0,13.0,56,0.00,,,0.00,552,HR-IXPWINDi_r2_v1.2.,2013-12-06 17:31:00,
2013-12-06 11:36:00,8.7,-3.8,30.66,East,82,5.0,11.0,55,0.00,,,0.00,536,HR-IXPWINDi_r2_v1.2.,2013-12-06 17:36:00,
2013-12-06 11:42:00,8.8,-4.1,30.66,West,263,4.0,11.0,54,0.00,,,0.00,415,HR-IXPWINDi_r2_v1.2.,2013-12-06 17:42:00,
2013-12-06 11:47:00,8.1,-4.8,30.66,NE,34,2.0,13.0,54,0.00,,,0.00,496,HR-IXPWINDi_r2_v1.2.,2013-12-06 17:47:00,
2013-12-06 11:52:00,8.7,-3.8,30.64,NE,51,3.0,13.0,55,0.00,,,0.00,494,HR-IXPWINDi_r2_v1.2.,2013-12-06 17:52:00,
2013-12-06 11:57:00,9.3,-3.7,30.65,ENE,76,4.0,12.0,54,0.00,,,0.00,598,HR-IXPWINDi_r2_v1.2.,2013-12-06 17:57:00,
2013-12-06 12:03:00,9.4,-3.6,30.65,WNW,300,4.0,11.0,54,0.00,,,0.00,606,HR-IXPWINDi_r2_v1.2.,2013-12-06 18:03:00,
2013-12-06 12:08:00,9.8,-3.6,30.65,NNW,345,5.0,11.0,53,0.00,,,0.00,554,HR-IXPWINDi_r2_v1.2.,2013-12-06 18:08:00,
2013-12-06 12:13:00,9.6,-3.8,30.65,West,276,4.0,13.0,53,0.00,,,0.00,550,HR-IXPWINDi_r2_v1.2.,2013-12-06 18:13:00,
2013-12-06 12:19:00,9.6,-3.8,30.65,NW,308,5.0,16.0,53,0.00,,,0.00,548,HR-IXPWINDi_r2_v1.2.,2013-12-06 18:19:00,
2013-12-06 12:24:00,9.6,-3.8,30.65,NW,309,7.0,16.0,53,0.00,,,0.00,524,HR-IXPWINDi_r2_v1.2.,2013-12-06 18:24:00,
2013-12-06 12:29:00,9.6,-3.8,30.65,NE,40,2.0,12.0,53,0.00,,,0.00,517,HR-IXPWINDi_r2_v1.2.,2013-12-06 18:29:00,
2013-12-06 12:34:00,9.9,-3.9,30.65,NNE,28,4.0,12.0,52,0.00,,,0.00,309,HR-IXPWINDi_r2_v1.2.,2013-12-06 18:34:00,
2013-12-06 12:39:00,9.4,-4.0,30.65,NE,42,2.0,11.0,53,0.00,,,0.00,274,HR-IXPWINDi_r2_v1.2.,2013-12-06 18:39:00,
2013-12-06 12:44:00,9.3,-3.7,30.65,NE,48,3.0,11.0,54,0.00,,,0.00,288,HR-IXPWINDi_r2_v1.2.,2013-12-06 18:44:00,
2013-12-06 12:49:00,9.7,-3.7,30.65,NNE,17,6.0,10.0,53,0.00,,,0.00,394,HR-IXPWINDi_r2_v1.2.,2013-12-06 18:49:00,
2013-12-06 12:54:00,10.0,-3.4,30.65,NE,45,4.0,10.0,53,0.00,,,0.00,517,HR-IXPWINDi_r2_v1.2.,2013-12-06 18:54:00,
2013-12-06 13:00:00,10.4,-3.8,30.65,NE,40,2.0,10.0,51,0.00,,,0.00,540,HR-IXPWINDi_r2_v1.2.,2013-12-06 19:00:00,
2013-12-06 13:05:00,10.8,-3.5,30.65,NNW,327,1.0,10.0,51,0.00,,,0.00,424,HR-IXPWINDi_r2_v1.2.,2013-12-06 19:05:00,
2013-12-06 13:10:00,10.9,-3.4,30.65,NNW,340,4.0,11.0,51,0.00,,,0.00,306,HR-IXPWINDi_r2_v1.2.,2013-12-06 19:10:00,
2013-12-06 13:15:00,10.8,-3.5,30.65,NNE,17,3.0,11.0,51,0.00,,,0.00,455,HR-IXPWINDi_r2_v1.2.,2013-12-06 19:15:00,
2013-12-06 13:20:00,10.5,-3.7,30.65,ENE,74,3.0,10.0,51,0.00,,,0.00,336,HR-IXPWINDi_r2_v1.2.,2013-12-06 19:20:00,
2013-12-06 13:25:00,10.9,-3.0,30.65,SSE,164,1.0,9.0,52,0.00,,,0.00,468,HR-IXPWINDi_r2_v1.2.,2013-12-06 19:25:00,
2013-12-06 13:30:00,11.6,-3.1,30.65,SW,229,3.0,7.0,50,0.00,,,0.00,466,HR-IXPWINDi_r2_v1.2.,2013-12-06 19:30:00,
2013-12-06 13:36:00,11.6,-3.1,30.65,NE,47,2.0,7.0,50,0.00,,,0.00,461,HR-IXPWINDi_r2_v1.2.,2013-12-06 19:36:00,
2013-12-06 13:41:00,11.8,-3.4,30.65,NE,49,5.0,10.0,49,0.00,,,0.00,494,HR-IXPWINDi_r2_v1.2.,2013-12-06 19:41:00,
2013-12-06 13:46:00,12.0,-3.2,30.65,WNW,302,4.0,10.0,49,0.00,,,0.00,552,HR-IXPWINDi_r2_v1.2.,2013-12-06 19:46:00,
2013-12-06 13:51:00,12.6,-2.6,30.64,WNW,294,3.0,11.0,49,0.00,,,0.00,547,HR-IXPWINDi_r2_v1.2.,2013-12-06 19:51:00,
2013-12-06 13:57:00,13.2,-3.0,30.64,WNW,297,3.0,11.0,47,0.00,,,0.00,508,HR-IXPWINDi_r2_v1.2.,2013-12-06 19:57:00,
2013-12-06 14:02:00,12.4,-3.7,30.64,NNE,22,2.0,11.0,47,0.00,,,0.00,434,HR-IXPWINDi_r2_v1.2.,2013-12-06 20:02:00,
2013-12-06 14:07:00,12.8,-2.9,30.64,NW,306,11.0,11.0,48,0.00,,,0.00,403,HR-IXPWINDi_r2_v1.2.,2013-12-06 20:07:00,
2013-12-06 14:12:00,12.3,-3.3,30.64,WNW,282,3.0,11.0,48,0.00,,,0.00,418,HR-IXPWINDi_r2_v1.2.,2013-12-06 20:12:00,
2013-12-06 14:17:00,12.6,-3.1,30.64,West,278,1.0,11.0,48,0.00,,,0.00,403,HR-IXPWINDi_r2_v1.2.,2013-12-06 20:17:00,
2013-12-06 14:22:00,12.3,-3.3,30.64,WNW,286,6.0,11.0,48,0.00,,,0.00,357,HR-IXPWINDi_r2_v1.2.,2013-12-06 20:22:00,
2013-12-06 14:27:00,12.5,-3.2,30.64,NNE,28,5.0,10.0,48,0.00,,,0.00,364,HR-IXPWINDi_r2_v1.2.,2013-12-06 20:27:00,
2013-12-06 14:32:00,11.9,-3.7,30.63,NNE,30,2.0,10.0,48,0.00,,,0.00,350,HR-IXPWINDi_r2_v1.2.,2013-12-06 20:32:00,
2013-12-06 14:37:00,12.3,-3.3,30.63,WNW,292,5.0,10.0,48,0.00,,,0.00,392,HR-IXPWINDi_r2_v1.2.,2013-12-06 20:37:00,
2013-12-06 14:42:00,12.1,-3.5,30.63,NNW,337,1.0,11.0,48,0.00,,,0.00,415,HR-IXPWINDi_r2_v1.2.,2013-12-06 20:42:00,
2013-12-06 14:48:00,12.6,-2.6,30.63,NW,310,6.0,11.0,49,0.00,,,0.00,396,HR-IXPWINDi_r2_v1.2.,2013-12-06 20:48:00,
2013-12-06 14:53:00,12.3,-3.8,30.63,East,80,2.0,13.0,47,0.00,,,0.00,272,HR-IXPWINDi_r2_v1.2.,2013-12-06 20:53:00,
2013-12-06 14:58:00,11.8,-3.4,30.64,ENE,76,2.0,13.0,49,0.00,,,0.00,183,HR-IXPWINDi_r2_v1.2.,2013-12-06 20:58:00,
2013-12-06 15:04:00,11.5,-3.6,30.64,North,10,1.0,12.0,49,0.00,,,0.00,167,HR-IXPWINDi_r2_v1.2.,2013-12-06 21:04:00,
2013-12-06 15:09:00,11.8,-3.4,30.63,NE,34,3.0,12.0,49,0.00,,,0.00,162,HR-IXPWINDi_r2_v1.2.,2013-12-06 21:09:00,
2013-12-06 15:14:00,11.4,-3.7,30.64,NNE,29,6.0,12.0,49,0.00,,,0.00,132,HR-IXPWINDi_r2_v1.2.,2013-12-06 21:14:00,
2013-12-06 15:19:00,10.9,-3.8,30.64,NE,34,5.0,12.0,50,0.00,,,0.00,146,HR-IXPWINDi_r2_v1.2.,2013-12-06 21:19:00,
2013-12-06 15:24:00,11.4,-2.9,30.64,West,276,7.0,13.0,51,0.00,,,0.00,146,HR-IXPWINDi_r2_v1.2.,2013-12-06 21:24:00,
2013-12-06 15:29:00,11.2,-3.5,30.64,NNE,29,6.0,14.0,50,0.00,,,0.00,171,HR-IXPWINDi_r2_v1.2.,2013-12-06 21:29:00,
2013-12-06 15:34:00,11.0,-3.3,30.64,NNW,344,1.0,14.0,51,0.00,,,0.00,221,HR-IXPWINDi_r2_v1.2.,2013-12-06 21:34:00,
2013-12-06 15:40:00,11.4,-3.3,30.65,ENE,62,3.0,12.0,50,0.00,,,0.00,236,HR-IXPWINDi_r2_v1.2.,2013-12-06 21:40:00,
2013-12-06 15:45:00,11.3,-3.4,30.65,NNW,333,2.0,12.0,50,0.00,,,0.00,185,HR-IXPWINDi_r2_v1.2.,2013-12-06 21:45:00,
2013-12-06 15:50:00,11.1,-3.6,30.65,NE,54,6.0,9.0,50,0.00,,,0.00,181,HR-IXPWINDi_r2_v1.2.,2013-12-06 21:50:00,
2013-12-06 15:55:00,10.9,-3.4,30.65,NW,304,5.0,12.0,51,0.00,,,0.00,105,HR-IXPWINDi_r2_v1.2.,2013-12-06 21:55:00,
2013-12-06 16:00:00,10.7,-3.6,30.65,NE,46,4.0,13.0,51,0.00,,,0.00,130,HR-IXPWINDi_r2_v1.2.,2013-12-06 22:00:00,
2013-12-06 16:05:00,10.7,-3.1,30.66,NW,325,4.0,13.0,52,0.00,,,0.00,113,HR-IXPWINDi_r2_v1.2.,2013-12-06 22:05:00,
2013-12-06 16:10:00,10.8,-3.1,30.66,NNW,343,3.0,9.0,52,0.00,,,0.00,90,HR-IXPWINDi_r2_v1.2.,2013-12-06 22:10:00,
2013-12-06 16:15:00,10.8,-3.1,30.66,NE,46,0.0,8.0,52,0.00,,,0.00,65,HR-IXPWINDi_r2_v1.2.,2013-12-06 22:15:00,
2013-12-06 16:21:00,10.5,-3.3,30.66,NNW,336,1.0,7.0,52,0.00,,,0.00,67,HR-IXPWINDi_r2_v1.2.,2013-12-06 22:21:00,
2013-12-06 16:26:00,10.4,-3.4,30.66,NW,306,2.0,10.0,52,0.00,,,0.00,53,HR-IXPWINDi_r2_v1.2.,2013-12-06 22:26:00,
2013-12-06 16:31:00,10.2,-3.6,30.67,ENE,74,5.0,10.0,52,0.00,,,0.00,28,HR-IXPWINDi_r2_v1.2.,2013-12-06 22:31:00,
2013-12-06 16:36:00,10.0,-3.8,30.67,NE,34,6.0,8.0,52,0.00,,,0.00,28,HR-IXPWINDi_r2_v1.2.,2013-12-06 22:36:00,
2013-12-06 16:41:00,9.9,-3.9,30.67,NE,37,1.0,8.0,52,0.00,,,0.00,25,HR-IXPWINDi_r2_v1.2.,2013-12-06 22:41:00,
2013-12-06 16:47:00,9.8,-3.6,30.67,NNE,26,5.0,10.0,53,0.00,,,0.00,14,HR-IXPWINDi_r2_v1.2.,2013-12-06 22:47:00,
2013-12-06 16:52:00,9.8,-3.6,30.67,NE,36,4.0,10.0,53,0.00,,,0.00,7,HR-IXPWINDi_r2_v1.2.,2013-12-06 22:52:00,
2013-12-06 16:57:00,9.7,-3.7,30.67,NE,37,2.0,8.0,53,0.00,,,0.00,5,HR-IXPWINDi_r2_v1.2.,2013-12-06 22:57:00,
2013-12-06 17:02:00,9.5,-3.5,30.67,NE,40,2.0,8.0,54,0.00,,,0.00,0,HR-IXPWINDi_r2_v1.2.,2013-12-06 23:02:00,
2013-12-06 17:08:00,9.4,-3.6,30.67,NW,325,2.0,9.0,54,0.00,,,0.00,0,HR-IXPWINDi_r2_v1.2.,2013-12-06 23:08:00,
2013-12-06 17:13:00,9.2,-3.8,30.67,WNW,283,1.0,9.0,54,0.00,,,0.00,0,HR-IXPWINDi_r2_v1.2.,2013-12-06 23:13:00,
2013-12-06 17:18:00,9.1,-3.5,30.67,NNW,328,1.0,9.0,55,0.00,,,0.00,0,HR-IXPWINDi_r2_v1.2.,2013-12-06 23:18:00,
2013-12-06 17:23:00,9.0,-3.6,30.68,WNW,299,1.0,10.0,55,0.00,,,0.00,0,HR-IXPWINDi_r2_v1.2.,2013-12-06 23:23:00,
2013-12-06 17:28:00,8.8,-3.4,30.68,NE,55,8.0,10.0,56,0.00,,,0.00,0,HR-IXPWINDi_r2_v1.2.,2013-12-06 23:28:00,
2013-12-06 17:33:00,8.6,-3.6,30.68,NE,53,4.0,9.0,56,0.00,,,0.00,0,HR-IXPWINDi_r2_v1.2.,2013-12-06 23:33:00,
2013-12-06 17:38:00,8.5,-3.7,30.68,NE,53,7.0,8.0,56,0.00,,,0.00,0,HR-IXPWINDi_r2_v1.2.,2013-12-06 23:38:00,
2013-12-06 17:44:00,8.4,-3.8,30.69,NNE,22,3.0,8.0,56,0.00,,,0.00,0,HR-IXPWINDi_r2_v1.2.,2013-12-06 23:44:00,
2013-12-06 17:49:00,8.3,-3.5,30.69,NNW,333,4.0,8.0,57,0.00,,,0.00,0,HR-IXPWINDi_r2_v1.2.,2013-12-06 23:49:00,
2013-12-06 17:54:00,8.1,-3.7,30.69,NW,315,7.0,8.0,57,0.00,,,0.00,0,HR-IXPWINDi_r2_v1.2.,2013-12-06 23:54:00,
2013-12-06 17:59:00,8.0,-3.8,30.69,NNE,24,2.0,9.0,57,0.00,,,0.00,0,HR-IXPWINDi_r2_v1.2.,2013-12-06 23:59:00,
2013-12-06 18:04:00,8.0,-3.8,30.70,North,350,2.0,9.0,57,0.00,,,0.00,0,HR-IXPWINDi_r2_v1.2.,2013-12-07 00:04:00,
2013-12-06 18:10:00,7.9,-3.5,30.70,NE,41,3.0,7.0,58,0.00,,,0.00,0,HR-IXPWINDi_r2_v1.2.,2013-12-07 00:10:00,
2013-12-06 18:15:00,7.7,-3.7,30.70,North,350,2.0,7.0,58,0.00,,,0.00,0,HR-IXPWINDi_r2_v1.2.,2013-12-07 00:15:00,
2013-12-06 18:20:00,7.6,-3.4,30.71,North,355,2.0,6.0,59,0.00,,,0.00,0,HR-IXPWINDi_r2_v1.2.,2013-12-07 00:20:00,
2013-12-06 18:25:00,7.6,-3.4,30.71,NW,326,4.0,8.0,59,0.00,,,0.00,0,HR-IXPWINDi_r2_v1.2.,2013-12-07 00:25:00,
2013-12-06 18:30:00,7.4,-3.6,30.72,NW,312,6.0,9.0,59,0.00,,,0.00,0,HR-IXPWINDi_r2_v1.2.,2013-12-07 00:30:00,
2013-12-06 18:35:00,7.3,-3.3,30.72,NW,325,8.0,9.0,60,0.00,,,0.00,0,HR-IXPWINDi_r2_v1.2.,2013-12-07 00:35:00,
2013-12-06 18:41:00,7.2,-3.4,30.72,NE,38,0.0,11.0,60,0.00,,,0.00,0,HR-IXPWINDi_r2_v1.2.,2013-12-07 00:41:00,
2013-12-06 18:46:00,7.1,-3.5,30.72,NW,321,4.0,11.0,60,0.00,,,0.00,0,HR-IXPWINDi_r2_v1.2.,2013-12-07 00:46:00,
2013-12-06 18:51:00,6.9,-3.4,30.72,ENE,69,2.0,10.0,61,0.00,,,0.00,0,HR-IXPWINDi_r2_v1.2.,2013-12-07 00:51:00,
2013-12-06 18:56:00,6.8,-3.5,30.72,NNE,27,4.0,9.0,61,0.00,,,0.00,0,HR-IXPWINDi_r2_v1.2.,2013-12-07 00:56:00,
2013-12-06 19:02:00,6.7,-3.6,30.73,NE,46,5.0,8.0,61,0.00,,,0.00,0,HR-IXPWINDi_r2_v1.2.,2013-12-07 01:02:00,
2013-12-06 19:07:00,6.5,-3.8,30.73,NNW,331,1.0,8.0,61,0.00,,,0.00,0,HR-IXPWINDi_r2_v1.2.,2013-12-07 01:07:00,
2013-12-06 19:12:00,6.3,-3.6,30.74,NW,313,2.0,12.0,62,0.00,,,0.00,0,HR-IXPWINDi_r2_v1.2.,2013-12-07 01:12:00,
2013-12-06 19:17:00,6.1,-3.8,30.74,ENE,61,2.0,12.0,62,0.00,,,0.00,0,HR-IXPWINDi_r2_v1.2.,2013-12-07 01:17:00,
2013-12-06 19:22:00,6.0,-3.6,30.74,East,91,2.0,9.0,63,0.00,,,0.00,0,HR-IXPWINDi_r2_v1.2.,2013-12-07 01:22:00,
2013-12-06 19:27:00,5.8,-3.8,30.74,NE,34,3.0,8.0,63,0.00,,,0.00,0,HR-IXPWINDi_r2_v1.2.,2013-12-07 01:27:00,
2013-12-06 19:32:00,5.6,-3.9,30.74,WNW,292,3.0,10.0,63,0.00,,,0.00,0,HR-IXPWINDi_r2_v1.2.,2013-12-07 01:32:00,
2013-12-06 19:37:00,5.5,-3.7,30.74,North,11,1.0,10.0,64,0.00,,,0.00,0,HR-IXPWINDi_r2_v1.2.,2013-12-07 01:37:00,
2013-12-06 19:42:00,5.3,-3.9,30.74,NNW,343,3.0,10.0,64,0.00,,,0.00,0,HR-IXPWINDi_r2_v1.2.,2013-12-07 01:42:00,
2013-12-06 19:47:00,5.2,-4.0,30.74,NW,313,1.0,10.0,64,0.00,,,0.00,0,HR-IXPWINDi_r2_v1.2.,2013-12-07 01:47:00,
2013-12-06 19:53:00,5.1,-4.1,30.74,North,355,1.0,7.0,64,0.00,,,0.00,0,HR-IXPWINDi_r2_v1.2.,2013-12-07 01:53:00,
2013-12-06 19:58:00,4.9,-4.0,30.75,NNW,341,5.0,7.0,65,0.00,,,0.00,0,HR-IXPWINDi_r2_v1.2.,2013-12-07 01:58:00,
2013-12-06 20:03:00,4.9,-4.0,30.75,NE,40,4.0,7.0,65,0.00,,,0.00,0,HR-IXPWINDi_r2_v1.2.,2013-12-07 02:03:00,
2013-12-06 20:08:00,4.8,-4.1,30.76,ENE,67,3.0,8.0,65,0.00,,,0.00,0,HR-IXPWINDi_r2_v1.2.,2013-12-07 02:08:00,
2013-12-06 20:13:00,4.7,-4.1,30.76,ENE,77,4.0,9.0,65,0.00,,,0.00,0,HR-IXPWINDi_r2_v1.2.,2013-12-07 02:13:00,
2013-12-06 20:18:00,4.6,-4.2,30.76,North,355,4.0,9.0,65,0.00,,,0.00,0,HR-IXPWINDi_r2_v1.2.,2013-12-07 02:18:00,
2013-12-06 20:24:00,4.5,-4.0,30.76,West,269,3.0,9.0,66,0.00,,,0.00,0,HR-IXPWINDi_r2_v1.2.,2013-12-07 02:24:00,
2013-12-06 20:29:00,4.3,-4.2,30.77,ENE,72,1.0,8.0,66,0.00,,,0.00,0,HR-IXPWINDi_r2_v1.2.,2013-12-07 02:29:00,
2013-12-06 20:34:00,4.1,-4.4,30.77,NE,40,4.0,8.0,66,0.00,,,0.00,0,HR-IXPWINDi_r2_v1.2.,2013-12-07 02:34:00,
2013-12-06 20:39:00,4.0,-4.2,30.76,WNW,291,2.0,7.0,67,0.00,,,0.00,0,HR-IXPWINDi_r2_v1.2.,2013-12-07 02:39:00,
2013-12-06 20:44:00,3.7,-4.5,30.76,North,355,7.0,8.0,67,0.00,,,0.00,0,HR-IXPWINDi_r2_v1.2.,2013-12-07 02:44:00,
2013-12-06 20:49:00,3.5,-4.7,30.77,NE,43,3.0,10.0,67,0.00,,,0.00,0,HR-IXPWINDi_r2_v1.2.,2013-12-07 02:49:00,
2013-12-06 20:54:00,3.3,-4.5,30.77,NE,46,3.0,10.0,68,0.00,,,0.00,0,HR-IXPWINDi_r2_v1.2.,2013-12-07 02:54:00,
2013-12-06 20:59:00,3.3,-4.5,30.77,NNE,19,2.0,10.0,68,0.00,,,0.00,0,HR-IXPWINDi_r2_v1.2.,2013-12-07 02:59:00,
2013-12-06 21:04:00,3.2,-4.6,30.77,NE,38,1.0,8.0,68,0.00,,,0.00,0,HR-IXPWINDi_r2_v1.2.,2013-12-07 03:04:00,
2013-12-06 21:10:00,3.1,-4.4,30.77,North,5,4.0,8.0,69,0.00,,,0.00,0,HR-IXPWINDi_r2_v1.2.,2013-12-07 03:10:00,
2013-12-06 21:15:00,2.9,-4.9,30.78,WNW,292,7.0,8.0,68,0.00,,,0.00,0,HR-IXPWINDi_r2_v1.2.,2013-12-07 03:15:00,
2013-12-06 21:20:00,2.8,-4.7,30.78,NE,52,4.0,8.0,69,0.00,,,0.00,0,HR-IXPWINDi_r2_v1.2.,2013-12-07 03:20:00,
2013-12-06 21:25:00,2.6,-4.9,30.78,North,355,4.0,9.0,69,0.00,,,0.00,0,HR-IXPWINDi_r2_v1.2.,2013-12-07 03:25:00,
2013-12-06 21:30:00,2.5,-5.0,30.78,NE,51,3.0,9.0,69,0.00,,,0.00,0,HR-IXPWINDi_r2_v1.2.,2013-12-07 03:30:00,
2013-12-06 21:35:00,2.5,-4.7,30.78,NE,39,1.0,9.0,70,0.00,,,0.00,0,HR-IXPWINDi_r2_v1.2.,2013-12-07 03:35:00,
2013-12-06 21:40:00,2.4,-5.1,30.78,NW,321,1.0,9.0,69,0.00,,,0.00,0,HR-IXPWINDi_r2_v1.2.,2013-12-07 03:40:00,
2013-12-06 21:45:00,2.2,-5.3,30.78,North,355,2.0,9.0,69,0.00,,,0.00,0,HR-IXPWINDi_r2_v1.2.,2013-12-07 03:45:00,
2013-12-06 21:50:00,2.1,-5.4,30.78,North,5,1.0,8.0,69,0.00,,,0.00,0,HR-IXPWINDi_r2_v1.2.,2013-12-07 03:50:00,
2013-12-06 21:55:00,2.0,-5.2,30.78,ESE,116,1.0,6.0,70,0.00,,,0.00,0,HR-IXPWINDi_r2_v1.2.,2013-12-07 03:55:00,
2013-12-06 22:01:00,1.8,-5.4,30.78,NNW,331,2.0,6.0,70,0.00,,,0.00,0,HR-IXPWINDi_r2_v1.2.,2013-12-07 04:01:00,
2013-12-06 22:06:00,1.6,-5.6,30.79,East,88,2.0,8.0,70,0.00,,,0.00,0,HR-IXPWINDi_r2_v1.2.,2013-12-07 04:06:00,
2013-12-06 22:11:00,1.4,-5.8,30.79,ENE,76,2.0,8.0,70,0.00,,,0.00,0,HR-IXPWINDi_r2_v1.2.,2013-12-07 04:11:00,
2013-12-06 22:17:00,1.4,-5.8,30.79,NNW,333,4.0,8.0,70,0.00,,,0.00,0,HR-IXPWINDi_r2_v1.2.,2013-12-07 04:17:00,
2013-12-06 22:22:00,1.4,-5.5,30.79,North,5,0.0,8.0,71,0.00,,,0.00,0,HR-IXPWINDi_r2_v1.2.,2013-12-07 04:22:00,
2013-12-06 22:27:00,1.3,-5.6,30.79,NE,43,1.0,8.0,71,0.00,,,0.00,0,HR-IXPWINDi_r2_v1.2.,2013-12-07 04:27:00,
2013-12-06 22:32:00,1.2,-6.0,30.79,NNW,333,7.0,8.0,70,0.00,,,0.00,0,HR-IXPWINDi_r2_v1.2.,2013-12-07 04:32:00,
2013-12-06 22:37:00,1.1,-6.1,30.79,NNE,17,2.0,9.0,70,0.00,,,0.00,0,HR-IXPWINDi_r2_v1.2.,2013-12-07 04:37:00,
2013-12-06 22:42:00,1.2,-5.7,30.79,WNW,299,3.0,9.0,71,0.00,,,0.00,0,HR-IXPWINDi_r2_v1.2.,2013-12-07 04:42:00,
2013-12-06 22:48:00,1.1,-5.8,30.79,ENE,65,2.0,8.0,71,0.00,,,0.00,0,HR-IXPWINDi_r2_v1.2.,2013-12-07 04:48:00,
2013-12-06 22:53:00,1.0,-5.9,30.80,North,5,3.0,8.0,71,0.00,,,0.00,0,HR-IXPWINDi_r2_v1.2.,2013-12-07 04:53:00,
2013-12-06 22:58:00,0.9,-6.0,30.80,NE,36,4.0,7.0,71,0.00,,,0.00,0,HR-IXPWINDi_r2_v1.2.,2013-12-07 04:58:00,
2013-12-06 23:01:00,0.9,-6.0,30.80,NE,44,0.0,7.0,71,0.00,,,0.00,0,HR-IXPWINDi_r2_v1.2.,2013-12-07 05:01:00,
2013-12-06 23:06:00,1.0,-5.6,30.80,ENE,74,1.0,7.0,72,0.00,,,0.00,0,HR-IXPWINDi_r2_v1.2.,2013-12-07 05:06:00,
2013-12-06 23:11:00,0.9,-6.0,30.79,NE,40,2.0,9.0,71,0.00,,,0.00,0,HR-IXPWINDi_r2_v1.2.,2013-12-07 05:11:00,
2013-12-06 23:16:00,0.8,-6.0,30.79,NE,36,3.0,9.0,71,0.00,,,0.00,0,HR-IXPWINDi_r2_v1.2.,2013-12-07 05:16:00,
2013-12-06 23:21:00,0.7,-6.1,30.80,North,5,4.0,8.0,71,0.00,,,0.00,0,HR-IXPWINDi_r2_v1.2.,2013-12-07 05:21:00,
2013-12-06 23:26:00,0.8,-6.0,30.80,ENE,58,3.0,8.0,71,0.00,,,0.00,0,HR-IXPWINDi_r2_v1.2.,2013-12-07 05:26:00,
2013-12-06 23:32:00,0.6,-6.2,30.80,NE,36,3.0,8.0,71,0.00,,,0.00,0,HR-IXPWINDi_r2_v1.2.,2013-12-07 05:32:00,
2013-12-06 23:37:00,0.5,-6.3,30.80,ENE,62,3.0,8.0,71,0.00,,,0.00,0,HR-IXPWINDi_r2_v1.2.,2013-12-07 05:37:00,
2013-12-06 23:42:00,0.4,-6.4,30.80,NE,53,0.0,6.0,71,0.00,,,0.00,0,HR-IXPWINDi_r2_v1.2.,2013-12-07 05:42:00,
2013-12-06 23:47:00,0.4,-6.1,30.81,North,349,0.0,7.0,72,0.00,,,0.00,0,HR-IXPWINDi_r2_v1.2.,2013-12-07 05:47:00,
2013-12-06 23:52:00,0.2,-6.3,30.81,NNE,24,3.0,7.0,72,0.00,,,0.00,0,HR-IXPWINDi_r2_v1.2.,2013-12-07 05:52:00,
2013-12-06 23:57:00,0.2,-6.3,30.81,NNE,19,1.0,5.0,72,0.00,,,0.00,0,HR-IXPWINDi_r2_v1.2.,2013-12-07 05:57:00,